Vigo, Spain

5:08 PM CEST en Agosto 19, 2017 (GMT +0200)
Vigo

Tiempo Historia de LEVX - Agosto, 2017

Change the Weather History Date:

Domingo, Agosto 13, 2017

  Actual Average Record
Temperature  
Temperatura media 76 ° F -  
Temperatura máxima 91 ° F 73 ° F 91 ° F (2017)
Temperatura mínima 62 ° F 57 ° F 50 ° F (2008)
Cooling Degree Days 12    
Growing Degree Days 26 (Base 50)    
Moisture  
Punto de rocío 56 ° F    
Average Humidity 53    
Maximum Humidity 78    
Minimum Humidity 21    
Precipitación  
Precipitación 0.00 pul 0.09 pul - ()
Presión al nivel del mar  
Presión al nivel del mar 30.01 pul    
Viento  
Velocidad del viento 4 mph ()    
Velocidad máxima del viento 15 mph    
Max Gust Speed -    
Visibilidad 19.0 Millas    
Eventos      
Averages and records for this station are not official NWS values.
T = Trace of Precipitation, MM = Missing Value Source: Averaged Metar Reports

Daily Weather History Graph

Daily Weather History Graph

Search for Another Location

Airport or City:

Trip Planner

Search our weather history database for the weather conditions in past years. The results will help you decide how hot, cold, wet, or windy it might be!

Date:

Astronomía

Aug. 13, 2017 Salida Puesta
Hora real 7:39 AM CEST 9:38 PM CEST
Crepúsculo civil 7:09 AM CEST 10:08 PM CEST
Crepúsculo náutico 6:32 AM CEST 10:45 PM CEST
Crepúsculo astronómico 5:51 AM CEST 11:25 PM CEST
Luna 12:23 AM CEST (8/13) 1:31 PM CEST (8/13)
Horas de luz 14h 58m
Horas de luz
13h 58m
Gibosa menguante, 68% of the Moon is Illuminated
Ago 13
Gibosa menguante
Ago 15
Cuarto menguante
Ago 21
Nueva
Ago 29
Cuarto creciente
Sep 6
Luna llena

Hourly Weather History & Observations

Hora (CEST) Temp. Índice de calor Punto de rocío Humedad Presión Visibilidad Wind Dir Velocidad del viento Velocidad de ráfagas Precip Eventos Condiciones
12:00 AM 69 ° F - 60 ° F 66% 30.09 pul - NNE 4.6 mph - -  
12:00 AM 69.8 ° F - 60.8 ° F 73% 30.09 pul - NNE 5.8 mph - N/A   Despejado
12:30 AM 69.8 ° F - 60.8 ° F 73% 30.09 pul - NNE 3.5 mph - N/A   Despejado
1:00 AM 68.0 ° F - 60.8 ° F 78% 30.09 pul - Sin viento Sin viento - N/A   Despejado
1:30 AM 68.0 ° F - 59.0 ° F 73% 30.09 pul - NNE 4.6 mph - N/A   Despejado
2:00 AM 66 ° F - 57 ° F 64% 30.07 pul 19 mi NNE 3.5 mph - -   Despejado
2:00 AM 68.0 ° F - 57.2 ° F 68% 30.09 pul - Variable 2.3 mph - N/A   Despejado
3:00 AM 63 ° F - 56 ° F 70% 30.06 pul - Sin viento Sin viento - -  
3:00 AM 64.4 ° F - 57.2 ° F 77% 30.06 pul - Sin viento Sin viento - N/A   Despejado
3:30 AM 64.4 ° F - 55.4 ° F 73% 30.06 pul - Sin viento Sin viento - N/A   Despejado
4:00 AM 63 ° F - 55 ° F 67% 30.05 pul - Norte 2.3 mph - -  
4:00 AM 64.4 ° F - 55.4 ° F 73% 30.06 pul - Variable 2.3 mph - N/A   Despejado
4:30 AM 62.6 ° F - 55.4 ° F 77% 30.04 pul - Sin viento Sin viento - N/A   Despejado
5:00 AM 62 ° F - 52 ° F 61% 30.04 pul 19 mi Sin viento Sin viento - -   Despejado
5:00 AM 64.4 ° F - 53.6 ° F 68% 30.04 pul - Variable 1.2 mph - N/A   Despejado
5:30 AM 64.4 ° F - 53.6 ° F 68% 30.04 pul - Variable 1.2 mph - N/A   Despejado
6:00 AM 64 ° F - 54 ° F 62% 30.03 pul - OSO 2.3 mph - -  
6:00 AM 64.4 ° F - 55.4 ° F 73% 30.04 pul - Variable 2.3 mph - N/A   Despejado
6:30 AM 64.4 ° F - 55.4 ° F 73% 30.04 pul - Variable 2.3 mph - N/A   Despejado
7:00 AM 62.6 ° F - 55.4 ° F 77% 30.04 pul - SO 3.5 mph - N/A   Despejado
7:30 AM 62.6 ° F - 55.4 ° F 77% 30.04 pul - Variable 2.3 mph - N/A   Despejado
8:00 AM 62.6 ° F - 55.4 ° F 77% 30.04 pul - Variable 1.2 mph - N/A   Despejado
8:30 AM 62.6 ° F - 55.4 ° F 77% 30.04 pul - Variable 2.3 mph - N/A   Despejado
9:00 AM 65 ° F - 56 ° F 64% 30.03 pul - Sur 2.3 mph - -  
9:00 AM 64.4 ° F - 57.2 ° F 77% 30.04 pul - Variable 2.3 mph - N/A   Despejado
9:30 AM 64.4 ° F - 55.4 ° F 73% 30.04 pul - SSO 6.9 mph - N/A   Despejado
10:00 AM 66.2 ° F - 57.2 ° F 73% 30.04 pul - SSO 6.9 mph - N/A   Despejado
10:30 AM 68.0 ° F - 57.2 ° F 68% 30.04 pul - SSO 6.9 mph - N/A   Despejado
11:00 AM 71 ° F - 58 ° F 53% 30.02 pul - Sur 4.6 mph - -  
11:00 AM 71.6 ° F - 59.0 ° F 64% 30.04 pul - Sur 4.6 mph - N/A   Despejado
11:30 AM 73.4 ° F - 59.0 ° F 61% 30.04 pul - Sur 4.6 mph - N/A   Despejado
12:00 PM 77.0 ° F - 60.8 ° F 57% 30.04 pul - SSO 4.6 mph - N/A   Despejado
12:30 PM 80.6 ° F 81.1 ° F 59.0 ° F 48% 30.04 pul - SSO 8.1 mph - N/A   Despejado
1:00 PM 83 ° F - 60 ° F 35% 29.99 pul - Sur 5.8 mph - -  
1:00 PM 82.4 ° F 82.9 ° F 60.8 ° F 48% 30.04 pul - Variable 5.8 mph - N/A   Despejado
1:30 PM 86.0 ° F 85.4 ° F 59.0 ° F 40% 30.04 pul - Sur 4.6 mph - N/A   Despejado
2:00 PM 89 ° F - 58 ° F 25% 29.97 pul - SSE 3.5 mph - -  
2:00 PM 87.8 ° F 87.1 ° F 59.0 ° F 38% 30.01 pul - Variable 2.3 mph - N/A   Despejado
2:30 PM 91.4 ° F 90.7 ° F 59.0 ° F 34% 30.01 pul - Variable 2.3 mph - N/A   Despejado
3:00 PM 89.6 ° F 88.9 ° F 59.0 ° F 36% 30.01 pul - OSO 8.1 mph - N/A   Despejado
3:30 PM 89.6 ° F 88.9 ° F 59.0 ° F 36% 30.01 pul - OSO 9.2 mph - N/A   Despejado
4:00 PM 89 ° F - 57 ° F 24% 29.94 pul - Oeste 10.4 mph - -  
4:00 PM 89.6 ° F 88.1 ° F 57.2 ° F 33% 29.98 pul - Oeste 9.2 mph - N/A   Despejado
4:30 PM 87.8 ° F 86.5 ° F 57.2 ° F 35% 29.98 pul - Oeste 10.4 mph - N/A   Despejado
5:00 PM 86 ° F - 55 ° F 24% 29.94 pul - OSO 12.7 mph - -  
5:00 PM 87.8 ° F 86.1 ° F 55.4 ° F 33% 29.98 pul - OSO 10.4 mph - N/A   Despejado
5:30 PM 86.0 ° F - 51.8 ° F 31% 29.98 pul - Oeste 15.0 mph - N/A   Despejado
6:00 PM 85 ° F - 51 ° F 21% 29.93 pul - Oeste 13.8 mph - -  
6:00 PM 84.2 ° F - 51.8 ° F 33% 29.98 pul - Oeste 13.8 mph - N/A   Despejado
6:30 PM 84.2 ° F 82.8 ° F 53.6 ° F 35% 29.98 pul - Oeste 11.5 mph - N/A   Despejado
7:00 PM 85 ° F - 56 ° F 26% 29.93 pul - Oeste 10.4 mph - -  
7:00 PM 84.2 ° F 83.0 ° F 55.4 ° F 37% 29.98 pul - Oeste 10.4 mph - N/A   Despejado
7:30 PM 84.2 ° F 83.0 ° F 55.4 ° F 37% 29.95 pul - ONO 5.8 mph - N/A   Despejado
8:00 PM 84 ° F - 56 ° F 28% 29.92 pul - Oeste 4.6 mph - -  
8:00 PM 84.2 ° F 83.5 ° F 57.2 ° F 40% 29.95 pul - Oeste 4.6 mph - N/A   Despejado
8:30 PM 82.4 ° F - 51.8 ° F 35% 29.95 pul - Variable 1.2 mph - N/A   Despejado
9:00 PM 80 ° F - 57 ° F 35% 29.93 pul - Sin viento Sin viento - -  
9:00 PM 78.8 ° F - 59.0 ° F 51% 29.95 pul - Sin viento Sin viento - N/A   Despejado
9:30 PM 75.2 ° F - 53.6 ° F 47% 29.95 pul - Variable 2.3 mph - N/A   Despejado
10:00 PM 77 ° F - 53 ° F 33% 29.93 pul - NNO 2.3 mph - -  
10:00 PM 77.0 ° F - 53.6 ° F 44% 29.95 pul - Variable 2.3 mph - N/A   Despejado
10:30 PM 75.2 ° F - 51.8 ° F 44% 29.95 pul - Sin viento Sin viento - N/A   Despejado
11:00 PM 72 ° F - 51 ° F 37% 29.95 pul - Sin viento Sin viento - -  
11:00 PM 73.4 ° F - 51.8 ° F 47% 29.98 pul - Variable 1.2 mph - N/A   Despejado
11:30 PM 69.8 ° F - 53.6 ° F 56% 29.98 pul - Variable 1.2 mph - N/A   Despejado